Powrót do katalogu

STARLINK-4286

AktywnyŁącznośćVLEO
NORAD 52990·PAYLOAD·🇺🇸 United States

Wystrzelony Jul 7, 2022 z Cape Canaveral Space Force Station

Loading…

Następne Przeloty (najbliższe 24 godziny)

TLE

ŚwieżeSource: CelesTrak SupGP

Epoka: Sep 14, 2026, 22:18 UTC

1 52990C 22076E   26257.92965278  .00178610  00000+0  51162-2 0  2578
2 52990  53.1591 320.1123 0001196  87.7846 208.7531 15.35272570    14

Śledź STARLINK-4286 w czasie rzeczywistym z AllMySat

Download on the App Store